Regional Weather Roundup
Issued by NWS

Home | Current Version | Previous Version | Graphics & Text | Print | Product List | Glossary On
Versions: 1 2 3 4 5 6 7 8 9 10 11 12 13 14 15 16 17 18 19 20 21 22 23 24 25 26 27 28 29 30 31 32 33 34 35 36 37 38 39 40 41 42 43 44 45 46 47 48 49 50
000
ASUS43 KMPX 200710
RWRMN
WEATHER ROUNDUP FOR MINNESOTA
NATIONAL WEATHER SERVICE TWIN CITIES/CHANHASSEN MN
200 AM CDT MON OCT 20 2014


NOTE: "FAIR" INDICATES FEW OR NO CLOUDS BELOW 12,000 FEET WITH NO
SIGNIFICANT WEATHER AND/OR OBSTRUCTIONS TO VISIBILITY. N/A MEANS
CURRENT SKY AND/OR WEATHER CONDITIONS ARE NOT AVAILABLE.

MNZ060>063-068>070-200800-
   Twin Cities Metro

CITY           SKY/WX    TMP DP  RH WIND       PRES   REMARKS
TWIN CITIES    FAIR      51  42  71 NW8       29.89R
ST PAUL        FAIR      50  42  74 NW9       29.89R
CRYSTAL        FAIR      51  42  71 NW8       29.88R
BLAINE         FAIR      52  43  71 NW6       29.88R
LAKEVILLE      FAIR      48  43  81 W6        29.89R
EDEN PRAIRIE   FAIR      53  42  66 NW8       29.89R
SOUTH ST PAUL  FAIR      53  42  65 NW8       29.88R
LAKE ELMO      FAIR      50  43  76 NW6       29.89R
$$
MNZ001>005-007-008-013>017-022>024-027-028-200800-
   Northwest Minnesota

CITY           SKY/WX    TMP DP  RH WIND       PRES   REMARKS
BEMIDJI        FAIR      39  37  90 NW6       29.90R
HALLOCK        FAIR      43  37  81 N5        29.95R
ROSEAU         FAIR      43  37  81 NW5       29.93R
WARROAD        FAIR      43  39  87 NW7       29.92R
THIEF RVR FALL FAIR      43  37  81 NW3       29.93R
CROOKSTON      FAIR      39  36  87 N5        29.95R
FOSSTON        FAIR      39  36  87 CALM      29.93R
DETROIT LAKES  FAIR      45  41  87 NW3       29.94R
MOORHEAD       FAIR      45  41  87 NW5       29.96R
PARK RAPIDS    FAIR      43  39  86 NW7       29.90R
MAHNOMEN       FAIR      40  36  87 CALM      29.92R
$$
MNZ006-009>011-018-025>026-200800-
   North Central Minnesota

CITY           SKY/WX    TMP DP  RH WIND       PRES   REMARKS
BAUDETTE       FAIR      45  41  86 NW8       29.89R
FLAG ISLAND    FAIR      45  41  87 NW13      29.90R
INTL FALLS     MOCLDY    34  33  96 CALM      29.86R
WASKISH        FAIR      45  43  93 CALM      29.89R
BIG FORK       FAIR      46  41  81 CALM      29.87R
LONGVILLE      FAIR      39  37  93 CALM      29.89R
GRAND RAPIDS   FAIR      46  39  76 NW7       29.87R
CRANE LAKE     CLOUDY    46  43  87 CALM      29.86R
ORR            CLOUDY    45  39  81 CALM      29.83R
COOK           FAIR      41  39  93 CALM      29.85R
WALKER         FAIR      45  40  82 NW3       29.90R
$$
MNZ012-019>021-037-200800-
   Northeast Minnesota

CITY           SKY/WX    TMP DP  RH WIND       PRES   REMARKS
DULUTH         FAIR      49  40  71 NW12      29.82R
ELY            CLOUDY    48  39  71 CALM      29.82R
HIBBING        FAIR      44  38  79 NW6       29.85R
EVELETH        FAIR      45  39  81 NW3       29.85R
DULUTH HARBOR  CLOUDY    52  45  76 W7        29.84R
TWO HARBORS    FAIR      50  34  53 CALM      29.80R
SILVER BAY     FAIR      52  43  71 CALM      29.79R
GRAND MARAIS     N/A     50  41  71 CALM      29.79R
G MARAIS ARPRT CLOUDY    43  37  81 NW6       29.78R
$$
MNZ029>031-032-039>041-046>048-054>057-064-200800-
   West Central Minnesota

CITY           SKY/WX    TMP DP  RH WIND       PRES   REMARKS
FERGUS FALLS   FAIR      43  34  70 CALM      29.96R
WHEATON        FAIR      45  37  76 W7        29.98R
MORRIS         FAIR      41  36  81 W7        29.94R
ALEXANDRIA     FAIR      45  39  79 NW5       29.95R
ELBOW LAKE     FAIR      43  38  81 NW5       29.95R
WADENA         FAIR      45  39  81 W5        29.92R
GLENWOOD       FAIR      45  39  81 W7        29.94R
APPLETON       FAIR      39  36  87 W6        29.95R
BENSON         FAIR      39  37  93 NW3       29.95R
ORTONVILLE     FAIR      48  37  66 W5        29.96R
MADISON        FAIR      45  37  76 W7        29.96R
WILLMAR        FAIR      45  37  76 W7        29.96R
$$
MNZ033>034-036-042>043-049>051-058-059-200800-
   Central Minnesota

CITY           SKY/WX    TMP DP  RH WIND       PRES   REMARKS
ST CLOUD       FAIR      50  41  71 NW3       29.91R
SAUK CENTRE    FAIR      43  39  86 CALM      29.94R
PAYNESVILLE    FAIR      38  37  94 SW6       29.94R
AITKIN         FAIR      46  39  76 CALM      29.87R
PINE RIVER     FAIR      37  36  93 CALM      29.93R
BRAINERD       FAIR      47  42  83 NW5       29.90R
STAPLES        FAIR      45  39  81 W8        29.91R
LONG PRAIRIE   FAIR      48  41  76 W9        29.93R
LITTLE FALLS   FAIR      43  37  81 CALM      29.91R
LITCHFIELD     FAIR      50  43  76 W5        29.94R
BUFFALO        FAIR      50  41  71 W5        29.92R
MAPLE LAKE     FAIR      51  44  76 W6        29.92R
$$
MNZ037-044-045-052-053-200800-
   East Central Minnesota

CITY           SKY/WX    TMP DP  RH WIND       PRES   REMARKS
PRINCETON      FAIR      46  41  81 W5        29.90R
MORA           FAIR      43  37  81 CALM      29.90R
CAMBRIDGE      FAIR      48  39  71 W3        29.87R
RUSH CITY      FAIR      44  40  85 W3        29.88R
MOOSE LAKE     FAIR      46  41  81 NW7       29.84R
HINCKLEY       FAIR      50  43  76 W5        29.87R
CLOQUET        FAIR      48  39  71 W8        29.84R
MCGREGOR       FAIR      46  41  81 W3        29.88R
$$
MNZ071>073-080-081-089-090-097-098-200800-
   Southwest Minnesota

CITY           SKY/WX    TMP DP  RH WIND       PRES   REMARKS
MONTEVIDEO     FAIR      46  37  71 NW7       29.97R
GRANITE FALLS  FAIR      39  35  85 CALM      29.98R
CANBY          FAIR      46  39  77 W7        29.99R
MARSHALL       FAIR      45  36  70 W12       29.96R
REDWOOD FALLS  FAIR      48  39  71 W8        29.95R
OLIVIA         FAIR      43  37  81 W3        29.94R
PIPESTONE      FAIR      48  37  66 CALM      29.99R
WINDOM         FAIR      43  37  81 NW6       29.97R
WORTHINGTON    FAIR      45  37  76 NW8       29.99R
JACKSON        FAIR      46  37  71 NW7       29.97R
TRACY          FAIR      49  39  69 W5        29.98R
SLAYTON        FAIR      41  37  83 NW6       29.99R
$$
MNZ065>067-074>077-082>085-091>093-200800-
   South Central Minnesota

CITY           SKY/WX    TMP DP  RH WIND       PRES   REMARKS
MANKATO        FAIR      50  37  62 NW7       29.92R
NEW ULM        FAIR      48  41  76 NW9       29.94R
ST JAMES       FAIR      46  39  76 W7        29.95R
FAIRMONT       FAIR      48  36  61 NW7       29.95R
GLENCOE        FAIR      50  43  77 W8        29.92R
FARIBAULT      FAIR      52  43  71 NW6       29.90R
OWATONNA       FAIR      46  39  76 NW3       29.90R
WASECA         FAIR      50  39  66 NW7       29.92R
ALBERT LEA     FAIR      54  43  66 NW9       29.90R
$$
MNZ078>079-086>088-094>096-200800-
   Southeast Minnesota

CITY           SKY/WX    TMP DP  RH WIND       PRES   REMARKS
ROCHESTER      FAIR      50  42  74 NW9       29.88R
RED WING       FAIR      52  43  71 NW5       29.86R
STANTON        FAIR      49  41  74 W7        29.88R
DODGE CENTER   FAIR      50  43  76 NW12      29.88R
WINONA         FAIR      48  43  81 CALM      29.83R
AUSTIN         FAIR      50  43  76 NW7       29.89R
PRESTON        FAIR      50  42  73 NW12      29.87R
$$
ABBREVIATIONS USED IN REMARKS
   TC - TEMPERATURES IN CELSIUS
  WCI - WIND CHILL INDEX
   HX - HEAT INDEX
  VSB - VISIBILITY
$$



USA.gov is the U.S. government's official web portal to all federal, state and local government web resources and services.